| time (UTC) | temp F | wind direction | speed knots | gust knots | rain 1hr in | rain 24hr in | rain mn in | humidity % | barometer mb |
| 20260507185504 | 56 | 231 | 3.5 | 14.8 | 0.00 | 0.00 | 0.00 | 44 | 1010.9 |
| 20260507185004 | 56 | 189 | 7.8 | 14.8 | 0.00 | 0.00 | 0.00 | 46 | 1011.0 |
| 20260507184522 | 56 | 214 | 5.2 | 13.0 | 0.00 | 0.00 | 0.00 | 43 | 1011.0 |
| 20260507184007 | 56 | 241 | 5.2 | 13.0 | 0.00 | 0.00 | 0.00 | 44 | 1011.1 |
| 20260507183510 | 56 | 237 | 7.0 | 14.8 | 0.00 | 0.00 | 0.00 | 43 | 1011.0 |
| 20260507183028 | 57 | 180 | 8.7 | 14.8 | 0.00 | 0.00 | 0.00 | 43 | 1011.0 |
| 20260507182503 | 57 | 210 | 5.2 | 14.8 | 0.00 | 0.00 | 0.00 | 41 | 1011.0 |
| 20260507182007 | 57 | 225 | 7.0 | 14.8 | 0.00 | 0.00 | 0.00 | 45 | 1011.0 |
| 20260507181509 | 56 | 164 | 4.3 | 9.6 | 0.00 | 0.00 | 0.00 | 44 | 1011.0 |
| 20260507181004 | 56 | 131 | 5.2 | 13.0 | 0.00 | 0.00 | 0.00 | 43 | 1011.1 |
| 20260507180504 | 55 | 214 | 8.7 | 13.0 | 0.00 | 0.00 | 0.00 | 44 | 1011.1 |
| 20260507180012 | 56 | 179 | 2.6 | 10.4 | 0.00 | 0.00 | 0.00 | 46 | 1011.2 |
| 20260507175504 | 55 | 203 | 6.1 | 11.3 | 0.00 | 0.00 | 0.00 | 43 | 1011.4 |
| 20260507175009 | 56 | 169 | 7.0 | 11.3 | 0.00 | 0.00 | 0.00 | 41 | 1011.4 |
| 20260507174521 | 56 | 158 | 3.5 | 9.6 | 0.00 | 0.00 | 0.00 | 45 | 1011.5 |
| 20260507174004 | 55 | 241 | 4.3 | 11.3 | 0.00 | 0.00 | 0.00 | 43 | 1011.5 |
| 20260507173506 | 54 | 266 | 6.1 | 13.9 | 0.00 | 0.00 | 0.00 | 44 | 1011.5 |
| 20260507173038 | 56 | 223 | 7.0 | 13.9 | 0.00 | 0.00 | 0.00 | 42 | 1011.6 |
| 20260507172507 | 56 | 202 | 2.6 | 13.0 | 0.00 | 0.00 | 0.00 | 46 | 1011.7 |
| 20260507172005 | 55 | 197 | 6.1 | 13.0 | 0.00 | 0.00 | 0.00 | 43 | 1011.7 |
| 20260507171527 | 55 | 170 | 5.2 | 13.0 | 0.00 | 0.00 | 0.00 | 42 | 1011.8 |
| 20260507171005 | 56 | 153 | 4.3 | 12.2 | 0.00 | 0.00 | 0.00 | 43 | 1011.8 |
| 20260507170504 | 56 | 194 | 4.3 | 13.9 | 0.00 | 0.00 | 0.00 | 44 | 1011.8 |
| 20260507170013 | 55 | 222 | 5.2 | 13.9 | 0.00 | 0.00 | 0.00 | 43 | 1011.9 |
| 20260507165505 | 55 | 278 | 0.0 | 11.3 | 0.00 | 0.00 | 0.00 | 43 | 1011.9 |
| 20260507165004 | 55 | 222 | 7.8 | 11.3 | 0.00 | 0.00 | 0.00 | 43 | 1012.0 |
| 20260507164516 | 55 | 156 | 5.2 | 9.6 | 0.00 | 0.00 | 0.00 | 45 | 1012.0 |
| 20260507164006 | 55 | 205 | 6.1 | 9.6 | 0.00 | 0.00 | 0.00 | 44 | 1012.1 |
| 20260507163505 | 55 | 142 | 2.6 | 11.3 | 0.00 | 0.00 | 0.00 | 47 | 1012.1 |
| 20260507163021 | 55 | 148 | 5.2 | 11.3 | 0.00 | 0.00 | 0.00 | 44 | 1012.1 |
| 20260507162507 | 54 | 221 | 4.3 | 11.3 | 0.00 | 0.00 | 0.00 | 47 | 1012.1 |
| 20260507162007 | 53 | 172 | 3.5 | 8.7 | 0.00 | 0.00 | 0.00 | 44 | 1012.2 |
| 20260507161525 | 53 | 217 | 2.6 | 8.7 | 0.00 | 0.00 | 0.00 | 45 | 1012.3 |
| 20260507161009 | 54 | 111 | 5.2 | 8.7 | 0.00 | 0.00 | 0.00 | 43 | 1012.3 |
| 20260507160508 | 53 | 263 | 0.9 | 9.6 | 0.00 | 0.00 | 0.00 | 43 | 1012.3 |
| 20260507160010 | 53 | 193 | 6.1 | 9.6 | 0.00 | 0.00 | 0.00 | 44 | 1012.3 |
| 20260507155507 | 53 | 212 | 1.7 | 11.3 | 0.00 | 0.00 | 0.00 | 46 | 1012.3 |
| 20260507155006 | 53 | 176 | 4.3 | 11.3 | 0.00 | 0.00 | 0.00 | 45 | 1012.3 |
| 20260507154520 | 53 | 202 | 5.2 | 7.8 | 0.00 | 0.00 | 0.00 | 44 | 1012.4 |
| 20260507154007 | 52 | 218 | 4.3 | 10.4 | 0.00 | 0.00 | 0.00 | 45 | 1012.4 |
| 20260507153504 | 52 | 198 | 6.1 | 12.2 | 0.00 | 0.00 | 0.00 | 44 | 1012.4 |
| 20260507153022 | 52 | 231 | 6.1 | 12.2 | 0.00 | 0.00 | 0.00 | 46 | 1012.5 |
| 20260507152508 | 52 | 211 | 6.1 | 12.2 | 0.00 | 0.00 | 0.00 | 45 | 1012.5 |
| 20260507152007 | 53 | 226 | 4.3 | 10.4 | 0.00 | 0.00 | 0.00 | 47 | 1012.5 |
| 20260507151525 | 52 | 153 | 4.3 | 8.7 | 0.00 | 0.00 | 0.00 | 46 | 1012.5 |
| 20260507151007 | 52 | 142 | 5.2 | 8.7 | 0.00 | 0.00 | 0.00 | 46 | 1012.7 |
| 20260507150511 | 52 | 225 | 2.6 | 10.4 | 0.00 | 0.00 | 0.00 | 48 | 1012.8 |
| 20260507150026 | 52 | 147 | 7.8 | 10.4 | 0.00 | 0.00 | 0.00 | 46 | 1012.9 |
| 20260507145513 | 52 | 172 | 0.9 | 13.0 | 0.00 | 0.00 | 0.00 | 47 | 1012.9 |
| 20260507145003 | 52 | 141 | 6.1 | 13.0 | 0.00 | 0.00 | 0.00 | 45 | 1013.0 |
| 20260507144517 | 52 | 191 | 4.3 | 9.6 | 0.00 | 0.00 | 0.00 | 48 | 1013.0 |
| 20260507144006 | 52 | 172 | 4.3 | 9.6 | 0.00 | 0.00 | 0.00 | 45 | 1013.0 |
| 20260507143503 | 51 | 285 | 2.6 | 9.6 | 0.00 | 0.00 | 0.00 | 49 | 1013.1 |
| 20260507143019 | 50 | 236 | 6.1 | 12.2 | 0.00 | 0.00 | 0.00 | 45 | 1013.2 |
| 20260507142503 | 51 | 203 | 7.0 | 12.2 | 0.00 | 0.00 | 0.00 | 51 | 1013.2 |
| 20260507142012 | 51 | 224 | 4.3 | 9.6 | 0.00 | 0.00 | 0.00 | 47 | 1013.3 |
| 20260507141525 | 50 | 251 | 4.3 | 8.7 | 0.00 | 0.00 | 0.00 | 46 | 1013.3 |
| 20260507141007 | 51 | 198 | 4.3 | 8.7 | 0.00 | 0.00 | 0.00 | 46 | 1013.5 |
| 20260507140507 | 51 | 194 | 4.3 | 8.7 | 0.00 | 0.00 | 0.00 | 46 | 1013.7 |
| 20260507140026 | 50 | 251 | 4.3 | 8.7 | 0.00 | 0.00 | 0.00 | 50 | 1013.7 |
| 20260507135507 | 50 | 216 | 4.3 | 9.6 | 0.00 | 0.00 | 0.00 | 48 | 1013.8 |
| 20260507135009 | 50 | 226 | 5.2 | 11.3 | 0.00 | 0.00 | 0.00 | 48 | 1013.8 |
| 20260507134530 | 50 | 205 | 5.2 | 11.3 | 0.00 | 0.00 | 0.00 | 47 | 1013.9 |
| 20260507134007 | 50 | 145 | 4.3 | 8.7 | 0.00 | 0.00 | 0.00 | 51 | 1013.8 |
| 20260507133503 | 50 | 184 | 5.2 | 8.7 | 0.00 | 0.00 | 0.00 | 49 | 1013.8 |
| 20260507133017 | 50 | 168 | 2.6 | 7.8 | 0.00 | 0.00 | 0.00 | 51 | 1013.7 |
| 20260507132503 | 50 | 221 | 2.6 | 6.1 | 0.00 | 0.00 | 0.00 | 49 | 1013.7 |
| 20260507132006 | 49 | 274 | 1.7 | 4.3 | 0.00 | 0.00 | 0.00 | 56 | 1013.7 |
| 20260507131523 | 49 | 202 | 0.9 | 5.2 | 0.00 | 0.00 | 0.00 | 59 | 1013.7 |
| 20260507131011 | 48 | 134 | 2.6 | 5.2 | 0.00 | 0.00 | 0.00 | 59 | 1013.8 |
| 20260507130510 | 48 | 199 | 1.7 | 5.2 | 0.00 | 0.00 | 0.00 | 59 | 1013.8 |
| 20260507130024 | 47 | 84 | 1.7 | 6.1 | 0.00 | 0.00 | 0.00 | 59 | 1013.9 |
| 20260507125507 | 48 | 261 | 4.3 | 6.1 | 0.00 | 0.00 | 0.00 | 58 | 1013.9 |
| 20260507125008 | 47 | 321 | 0.0 | 3.5 | 0.00 | 0.00 | 0.00 | 63 | 1013.9 |
| 20260507124525 | 47 | 297 | 0.9 | 3.5 | 0.00 | 0.00 | 0.00 | 64 | 1013.9 |
| 20260507124011 | 47 | 302 | 0.9 | 2.6 | 0.00 | 0.00 | 0.00 | 67 | 1013.9 |
| 20260507123507 | 46 | 297 | 0.0 | 1.7 | 0.00 | 0.00 | 0.00 | 69 | 1013.9 |
| 20260507123015 | 46 | 285 | 0.0 | 1.7 | 0.00 | 0.00 | 0.00 | 71 | 1014.0 |
| 20260507122504 | 46 | 316 | 0.9 | 1.7 | 0.00 | 0.00 | 0.00 | 72 | 1014.0 |
| 20260507122008 | 45 | 347 | 0.0 | 1.7 | 0.00 | 0.00 | 0.00 | 73 | 1014.0 |
| 20260507121514 | 45 | 359 | 0.0 | 1.7 | 0.00 | 0.00 | 0.00 | 76 | 1014.0 |
| 20260507121004 | 44 | 318 | 0.9 | 1.7 | 0.00 | 0.00 | 0.00 | 77 | 1014.0 |
| 20260507120502 | 44 | 333 | 0.0 | 0.0 | 0.00 | 0.00 | 0.00 | 77 | 1013.9 |
| 20260507120003 | 43 | 338 | 0.0 | 1.7 | 0.00 | 0.00 | 0.00 | 79 | 1014.0 |
| 20260507115503 | 43 | 325 | 0.0 | 1.7 | 0.00 | 0.00 | 0.00 | 79 | 1014.0 |
| 20260507115006 | 42 | 355 | 0.0 | 1.7 | 0.00 | 0.00 | 0.00 | 79 | 1014.1 |
| 20260507114507 | 42 | 329 | 0.0 | 0.0 | 0.00 | 0.00 | 0.00 | 81 | 1014.0 |
| 20260507114003 | 41 | 245 | 0.0 | 0.0 | 0.00 | 0.01 | 0.00 | 81 | 1014.0 |
| 20260507113504 | 40 | 245 | 0.0 | 0.0 | 0.00 | 0.01 | 0.00 | 85 | 1014.0 |
| 20260507113013 | 39 | 245 | 0.0 | 0.0 | 0.00 | 0.01 | 0.00 | 87 | 1013.9 |
| 20260507112506 | 38 | 245 | 0.0 | 0.0 | 0.00 | 0.01 | 0.00 | 88 | 1013.8 |
| 20260507112004 | 37 | 185 | 0.0 | 0.0 | 0.00 | 0.01 | 0.00 | 91 | 1013.7 |
| 20260507111517 | 36 | 185 | 0.0 | 0.0 | 0.00 | 0.02 | 0.00 | 91 | 1013.6 |
| 20260507111004 | 35 | 185 | 0.0 | 0.0 | 0.00 | 0.02 | 0.00 | 91 | 1013.6 |
| 20260507110508 | 35 | 185 | 0.0 | 0.0 | 0.00 | 0.03 | 0.00 | 91 | 1013.4 |
| 20260507110005 | 34 | 185 | 0.0 | 0.9 | 0.00 | 0.03 | 0.00 | 91 | 1013.5 |
| 20260507105503 | 34 | 185 | 0.0 | 0.9 | 0.00 | 0.04 | 0.00 | 90 | 1013.5 |
| 20260507105003 | 34 | 194 | 0.0 | 0.0 | 0.00 | 0.04 | 0.00 | 89 | 1013.5 |
| 20260507104508 | 34 | 194 | 0.0 | 0.0 | 0.00 | 0.05 | 0.00 | 89 | 1013.3 |
| 20260507104004 | 34 | 194 | 0.0 | 0.0 | 0.00 | 0.05 | 0.00 | 89 | 1013.3 |
| 20260507103504 | 34 | 194 | 0.0 | 0.0 | 0.00 | 0.06 | 0.00 | 89 | 1013.3 |
| 20260507103008 | 34 | 194 | 0.0 | 0.0 | 0.00 | 0.06 | 0.00 | 89 | 1013.2 |
| 20260507102504 | 34 | 194 | 0.0 | 0.0 | 0.00 | 0.06 | 0.00 | 88 | 1013.1 |
| 20260507102003 | 34 | 194 | 0.0 | 0.0 | 0.00 | 0.06 | 0.00 | 88 | 1013.0 |
| 20260507101514 | 35 | 194 | 0.0 | 0.0 | 0.00 | 0.08 | 0.00 | 87 | 1013.1 |
| 20260507101004 | 35 | 194 | 0.0 | 0.0 | 0.00 | 0.08 | 0.00 | 87 | 1013.0 |
| 20260507100503 | 35 | 194 | 0.0 | 0.0 | 0.00 | 0.08 | 0.00 | 87 | 1013.0 |
| 20260507100019 | 35 | 194 | 0.0 | 0.0 | 0.00 | 0.08 | 0.00 | 86 | 1013.0 |
| 20260507095505 | 35 | 194 | 0.0 | 0.0 | 0.00 | 0.09 | 0.00 | 86 | 1013.0 |
| 20260507095008 | 36 | 194 | 0.0 | 0.0 | 0.00 | 0.09 | 0.00 | 86 | 1012.9 |
| 20260507094505 | 36 | 194 | 0.0 | 0.0 | 0.00 | 0.09 | 0.00 | 84 | 1013.0 |
| 20260507094005 | 36 | 194 | 0.0 | 0.0 | 0.00 | 0.09 | 0.00 | 84 | 1013.1 |
| 20260507093503 | 37 | 194 | 0.0 | 0.0 | 0.00 | 0.09 | 0.00 | 84 | 1013.1 |
| 20260507093007 | 37 | 194 | 0.0 | 0.0 | 0.00 | 0.09 | 0.00 | 84 | 1013.2 |
| 20260507092504 | 37 | 195 | 0.0 | 0.0 | 0.00 | 0.10 | 0.00 | 83 | 1013.2 |
| 20260507092006 | 38 | 194 | 0.0 | 0.0 | 0.00 | 0.10 | 0.00 | 83 | 1013.1 |
| 20260507091509 | 38 | 200 | 0.0 | 0.0 | 0.00 | 0.11 | 0.00 | 82 | 1013.1 |
| 20260507091004 | 38 | 217 | 0.0 | 0.0 | 0.00 | 0.11 | 0.00 | 81 | 1013.1 |
| 20260507090503 | 39 | 217 | 0.0 | 1.7 | 0.00 | 0.12 | 0.00 | 80 | 1013.2 |
| 20260507090019 | 39 | 217 | 0.0 | 1.7 | 0.00 | 0.12 | 0.00 | 80 | 1013.1 |
| 20260507085504 | 40 | 218 | 0.0 | 1.7 | 0.00 | 0.12 | 0.00 | 79 | 1013.0 |
| 20260507085004 | 40 | 218 | 0.0 | 0.0 | 0.00 | 0.12 | 0.00 | 78 | 1013.0 |
| 20260507084524 | 41 | 219 | 0.0 | 1.7 | 0.00 | 0.12 | 0.00 | 77 | 1013.0 |
| 20260507084004 | 42 | 200 | 0.0 | 1.7 | 0.00 | 0.12 | 0.00 | 75 | 1013.0 |
| 20260507083502 | 42 | 200 | 0.0 | 0.0 | 0.00 | 0.12 | 0.00 | 75 | 1013.0 |
| 20260507083004 | 43 | 200 | 0.0 | 0.0 | 0.00 | 0.12 | 0.00 | 72 | 1013.0 |
| 20260507082503 | 43 | 200 | 0.0 | 0.0 | 0.00 | 0.12 | 0.00 | 72 | 1013.0 |
| 20260507082005 | 44 | 200 | 0.0 | 0.0 | 0.00 | 0.12 | 0.00 | 71 | 1013.0 |
| 20260507081519 | 44 | 200 | 0.0 | 1.7 | 0.00 | 0.12 | 0.00 | 69 | 1013.0 |
| 20260507081004 | 44 | 200 | 0.0 | 1.7 | 0.00 | 0.12 | 0.00 | 67 | 1013.0 |
| 20260507080506 | 44 | 248 | 0.0 | 2.6 | 0.00 | 0.12 | 0.00 | 66 | 1013.0 |
| 20260507080015 | 44 | 248 | 0.9 | 2.6 | 0.00 | 0.12 | 0.00 | 65 | 1013.0 |
| 20260507075503 | 45 | 211 | 0.0 | 2.6 | 0.00 | 0.12 | 0.00 | 66 | 1012.9 |
| 20260507075009 | 45 | 236 | 0.9 | 2.6 | 0.00 | 0.12 | 0.00 | 65 | 1012.9 |
| 20260507074520 | 45 | 221 | 0.0 | 4.3 | 0.00 | 0.12 | 0.00 | 65 | 1013.0 |
| 20260507074004 | 45 | 233 | 1.7 | 4.3 | 0.00 | 0.12 | 0.00 | 65 | 1012.9 |
| 20260507073506 | 45 | 231 | 2.6 | 5.2 | 0.00 | 0.12 | 0.00 | 65 | 1012.9 |
| 20260507073022 | 45 | 221 | 2.6 | 5.2 | 0.00 | 0.12 | 0.00 | 64 | 1012.8 |
| 20260507072505 | 45 | 245 | 4.3 | 5.2 | 0.00 | 0.12 | 0.00 | 65 | 1012.8 |
| 20260507072003 | 45 | 257 | 2.6 | 4.3 | 0.00 | 0.12 | 0.00 | 65 | 1012.8 |
| 20260507071507 | 45 | 250 | 0.0 | 1.7 | 0.00 | 0.12 | 0.00 | 66 | 1012.7 |
| 20260507071005 | 45 | 270 | 0.0 | 1.7 | 0.00 | 0.12 | 0.00 | 66 | 1012.7 |
| 20260507070504 | 45 | 258 | 0.0 | 2.6 | 0.00 | 0.12 | 0.00 | 65 | 1012.9 |
| 20260507070018 | 45 | 245 | 0.9 | 2.6 | 0.00 | 0.12 | 0.00 | 65 | 1013.1 |
| 20260507065503 | 45 | 252 | 0.9 | 2.6 | 0.00 | 0.12 | 0.00 | 67 | 1013.0 |
| 20260507065003 | 45 | 269 | 0.0 | 3.5 | 0.00 | 0.12 | 0.00 | 65 | 1013.0 |
| 20260507064517 | 45 | 188 | 0.9 | 3.5 | 0.00 | 0.12 | 0.00 | 65 | 1013.1 |
| 20260507064003 | 45 | 240 | 0.9 | 2.6 | 0.00 | 0.12 | 0.00 | 65 | 1013.1 |
| 20260507063508 | 44 | 243 | 0.9 | 3.5 | 0.00 | 0.12 | 0.00 | 69 | 1013.1 |
| 20260507063020 | 44 | 249 | 0.9 | 3.5 | 0.00 | 0.12 | 0.00 | 75 | 1013.1 |
| 20260507062507 | 44 | 219 | 0.0 | 1.7 | 0.00 | 0.12 | 0.00 | 77 | 1013.3 |
| 20260507062006 | 45 | 219 | 0.0 | 0.9 | 0.00 | 0.12 | 0.00 | 76 | 1013.5 |
| 20260507061522 | 45 | 264 | 0.0 | 0.0 | 0.00 | 0.12 | 0.00 | 75 | 1013.5 |
| 20260507061004 | 45 | 264 | 0.0 | 0.0 | 0.00 | 0.12 | 0.00 | 77 | 1013.5 |
| 20260507060502 | 45 | 250 | 0.0 | 0.0 | 0.00 | 0.12 | 0.00 | 76 | 1013.6 |
| 20260507060012 | 45 | 250 | 0.0 | 1.7 | 0.00 | 0.12 | 0.00 | 73 | 1013.5 |
| 20260507055505 | 45 | 250 | 0.0 | 1.7 | 0.00 | 0.12 | 0.00 | 72 | 1013.4 |
| 20260507055004 | 46 | 250 | 0.0 | 2.6 | 0.00 | 0.12 | 0.00 | 72 | 1013.5 |
| 20260507054517 | 46 | 255 | 0.9 | 2.6 | 0.00 | 0.12 | 0.00 | 72 | 1013.6 |
| 20260507054004 | 46 | 213 | 0.0 | 1.7 | 0.00 | 0.12 | 0.00 | 74 | 1013.7 |
| 20260507053504 | 46 | 213 | 0.0 | 0.0 | 0.00 | 0.12 | 0.00 | 74 | 1013.7 |
| 20260507053020 | 46 | 213 | 0.0 | 0.0 | 0.00 | 0.12 | 0.00 | 74 | 1013.8 |
| 20260507052508 | 46 | 213 | 0.0 | 0.0 | 0.00 | 0.12 | 0.00 | 73 | 1013.8 |
| 20260507052006 | 46 | 213 | 0.0 | 1.7 | 0.00 | 0.12 | 0.00 | 71 | 1013.7 |
| 20260507051523 | 46 | 213 | 0.0 | 2.6 | 0.00 | 0.12 | 0.00 | 72 | 1013.8 |
| 20260507051006 | 46 | 213 | 0.9 | 2.6 | 0.00 | 0.12 | 0.00 | 71 | 1013.8 |
| 20260507050505 | 46 | 223 | 0.9 | 2.6 | 0.00 | 0.12 | 0.00 | 70 | 1013.8 |
| 20260507050006 | 46 | 241 | 0.0 | 3.5 | 0.00 | 0.12 | 0.00 | 70 | 1013.7 |
| 20260507045504 | 47 | 229 | 0.9 | 3.5 | 0.00 | 0.12 | 0.00 | 71 | 1013.8 |
| 20260507045004 | 47 | 219 | 0.9 | 2.6 | 0.00 | 0.12 | 0.00 | 70 | 1013.8 |
| 20260507044530 | 47 | 217 | 0.9 | 2.6 | 0.00 | 0.12 | 0.00 | 71 | 1013.8 |
| 20260507044006 | 47 | 238 | 0.9 | 1.7 | 0.00 | 0.12 | 0.00 | 71 | 1013.8 |
| 20260507043502 | 47 | 240 | 0.9 | 1.7 | 0.00 | 0.12 | 0.00 | 71 | 1013.7 |
| 20260507043018 | 47 | 210 | 0.9 | 3.5 | 0.00 | 0.12 | 0.00 | 72 | 1013.7 |
| 20260507042504 | 47 | 214 | 0.0 | 3.5 | 0.00 | 0.12 | 0.00 | 71 | 1013.8 |
| 20260507042007 | 47 | 244 | 1.7 | 3.5 | 0.00 | 0.12 | 0.00 | 72 | 1013.8 |
| 20260507041523 | 47 | 216 | 1.7 | 2.6 | 0.00 | 0.12 | 0.00 | 71 | 1013.8 |
| 20260507041005 | 47 | 238 | 0.0 | 1.7 | 0.00 | 0.12 | 0.00 | 72 | 1013.6 |
| 20260507040508 | 47 | 243 | 0.0 | 3.5 | 0.00 | 0.12 | 0.00 | 71 | 1013.7 |
| 20260507040031 | 47 | 243 | 1.7 | 3.5 | 0.00 | 0.12 | 0.00 | 71 | 1013.8 |
| 20260507035505 | 47 | 225 | 0.9 | 2.6 | 0.00 | 0.12 | 0.12 | 72 | 1013.8 |
| 20260507035006 | 48 | 242 | 0.9 | 2.6 | 0.00 | 0.12 | 0.12 | 71 | 1013.7 |
| 20260507034512 | 48 | 233 | 0.0 | 2.6 | 0.00 | 0.12 | 0.12 | 73 | 1013.7 |
| 20260507034006 | 48 | 228 | 1.7 | 3.5 | 0.00 | 0.12 | 0.12 | 72 | 1013.9 |
| 20260507033505 | 48 | 232 | 1.7 | 3.5 | 0.00 | 0.12 | 0.12 | 73 | 1013.8 |
| 20260507033016 | 48 | 207 | 0.0 | 3.5 | 0.00 | 0.12 | 0.12 | 74 | 1013.6 |
| 20260507032504 | 48 | 250 | 0.9 | 4.3 | 0.00 | 0.12 | 0.12 | 74 | 1013.4 |
| 20260507032008 | 48 | 269 | 0.9 | 4.3 | 0.00 | 0.12 | 0.12 | 74 | 1013.5 |
| 20260507031520 | 48 | 237 | 0.0 | 1.7 | 0.00 | 0.12 | 0.12 | 77 | 1013.4 |
| 20260507031004 | 48 | 241 | 0.0 | 2.6 | 0.00 | 0.12 | 0.12 | 77 | 1013.5 |
| 20260507030511 | 48 | 241 | 0.0 | 3.5 | 0.00 | 0.12 | 0.12 | 76 | 1013.3 |
| 20260507030026 | 48 | 240 | 1.7 | 3.5 | 0.00 | 0.12 | 0.12 | 75 | 1013.3 |
| 20260507025508 | 48 | 225 | 0.9 | 4.3 | 0.00 | 0.12 | 0.12 | 76 | 1013.3 |
| 20260507025006 | 48 | 238 | 1.7 | 4.3 | 0.00 | 0.12 | 0.12 | 76 | 1013.2 |
| 20260507024525 | 49 | 239 | 1.7 | 4.3 | 0.00 | 0.12 | 0.12 | 76 | 1013.5 |
| 20260507024006 | 49 | 240 | 0.9 | 7.0 | 0.00 | 0.12 | 0.12 | 75 | 1013.4 |
| 20260507023505 | 49 | 286 | 1.7 | 7.0 | 0.00 | 0.12 | 0.12 | 76 | 1013.5 |
| 20260507023011 | 49 | 210 | 2.6 | 6.1 | 0.00 | 0.12 | 0.12 | 78 | 1013.5 |
| 20260507022506 | 49 | 229 | 1.7 | 3.5 | 0.00 | 0.12 | 0.12 | 79 | 1013.4 |
| 20260507022005 | 49 | 201 | 0.9 | 4.3 | 0.00 | 0.12 | 0.12 | 78 | 1013.3 |
| 20260507021522 | 49 | 204 | 1.7 | 4.3 | 0.00 | 0.12 | 0.12 | 78 | 1013.1 |
| 20260507021007 | 49 | 210 | 0.9 | 4.3 | 0.00 | 0.12 | 0.12 | 79 | 1012.8 |
| 20260507020508 | 49 | 226 | 2.6 | 3.5 | 0.00 | 0.12 | 0.12 | 78 | 1012.6 |
| 20260507020032 | 49 | 238 | 0.9 | 1.7 | 0.00 | 0.12 | 0.12 | 80 | 1012.4 |
| 20260507015508 | 49 | 217 | 0.0 | 0.9 | 0.00 | 0.12 | 0.12 | 81 | 1012.5 |
| 20260507015008 | 49 | 222 | 0.0 | 1.7 | 0.00 | 0.12 | 0.12 | 80 | 1012.7 |
| 20260507014528 | 49 | 211 | 0.9 | 2.6 | 0.00 | 0.12 | 0.12 | 81 | 1012.8 |
| 20260507014009 | 49 | 205 | 0.9 | 5.2 | 0.00 | 0.12 | 0.12 | 80 | 1012.8 |
| 20260507013505 | 49 | 229 | 2.6 | 5.2 | 0.00 | 0.12 | 0.12 | 80 | 1012.5 |
| 20260507013031 | 49 | 219 | 0.0 | 1.7 | 0.00 | 0.12 | 0.12 | 80 | 1012.5 |
| 20260507012504 | 49 | 248 | 0.0 | 2.6 | 0.00 | 0.12 | 0.12 | 80 | 1012.7 |
| 20260507012004 | 49 | 228 | 1.7 | 2.6 | 0.00 | 0.12 | 0.12 | 80 | 1012.6 |
| 20260507011517 | 49 | 190 | 0.0 | 2.6 | 0.00 | 0.12 | 0.12 | 80 | 1012.7 |
| 20260507011003 | 49 | 259 | 1.7 | 2.6 | 0.00 | 0.12 | 0.12 | 80 | 1012.5 |
| 20260507010506 | 49 | 240 | 1.7 | 3.5 | 0.00 | 0.12 | 0.12 | 80 | 1012.6 |
| 20260507010027 | 49 | 239 | 0.9 | 4.3 | 0.00 | 0.12 | 0.12 | 79 | 1012.8 |
| 20260507005508 | 49 | 208 | 1.7 | 5.2 | 0.00 | 0.12 | 0.12 | 79 | 1013.0 |
| 20260507005009 | 49 | 214 | 1.7 | 5.2 | 0.00 | 0.12 | 0.12 | 80 | 1012.9 |
| 20260507004531 | 49 | 257 | 1.7 | 4.3 | 0.00 | 0.12 | 0.12 | 80 | 1013.0 |
| 20260507004008 | 49 | 239 | 2.6 | 4.3 | 0.00 | 0.12 | 0.12 | 81 | 1013.2 |
| 20260507003508 | 49 | 162 | 0.9 | 3.5 | 0.00 | 0.12 | 0.12 | 81 | 1013.2 |
| 20260507003028 | 49 | 181 | 0.9 | 3.5 | 0.00 | 0.12 | 0.12 | 81 | 1013.3 |
| 20260507002506 | 49 | 214 | 1.7 | 3.5 | 0.00 | 0.12 | 0.12 | 81 | 1013.2 |
| 20260507002004 | 49 | 206 | 0.9 | 3.5 | 0.00 | 0.12 | 0.12 | 81 | 1013.2 |
| 20260507001521 | 49 | 196 | 1.7 | 5.2 | 0.00 | 0.12 | 0.12 | 81 | 1013.0 |
| 20260507001004 | 50 | 200 | 2.6 | 5.2 | 0.00 | 0.12 | 0.12 | 81 | 1012.8 |
| 20260507000506 | 50 | 232 | 2.6 | 5.2 | 0.00 | 0.12 | 0.12 | 81 | 1012.4 |
| 20260507000018 | 50 | 233 | 2.6 | 5.2 | 0.00 | 0.12 | 0.12 | 81 | 1012.7 |
| 20260506235504 | 50 | 229 | 2.6 | 5.2 | 0.00 | 0.12 | 0.12 | 81 | 1012.8 |
| 20260506235008 | 50 | 225 | 0.9 | 4.3 | 0.00 | 0.12 | 0.12 | 81 | 1012.8 |
| 20260506234523 | 50 | 208 | 2.6 | 5.2 | 0.00 | 0.12 | 0.12 | 81 | 1012.8 |
| 20260506234007 | 50 | 235 | 2.6 | 5.2 | 0.00 | 0.12 | 0.12 | 81 | 1012.6 |
| 20260506233509 | 50 | 195 | 2.6 | 4.3 | 0.00 | 0.12 | 0.12 | 81 | 1012.4 |
| 20260506233006 | 50 | 226 | 1.7 | 6.1 | 0.00 | 0.12 | 0.12 | 81 | 1012.4 |
| 20260506232504 | 50 | 223 | 2.6 | 6.1 | 0.00 | 0.12 | 0.12 | 81 | 1012.4 |
| 20260506232003 | 50 | 207 | 3.5 | 6.1 | 0.00 | 0.12 | 0.12 | 81 | 1012.2 |
| 20260506231514 | 50 | 214 | 2.6 | 6.1 | 0.00 | 0.12 | 0.12 | 81 | 1012.2 |
| 20260506231003 | 50 | 217 | 4.3 | 6.1 | 0.00 | 0.12 | 0.12 | 81 | 1012.1 |
| 20260506230505 | 50 | 205 | 1.7 | 6.1 | 0.00 | 0.12 | 0.12 | 81 | 1012.0 |
| 20260506230013 | 50 | 243 | 3.5 | 7.0 | 0.00 | 0.12 | 0.12 | 81 | 1012.0 |
| 20260506225504 | 50 | 231 | 2.6 | 7.0 | 0.00 | 0.12 | 0.12 | 81 | 1011.9 |
| 20260506225004 | 50 | 182 | 3.5 | 10.4 | 0.00 | 0.12 | 0.12 | 81 | 1011.9 |
| 20260506224524 | 50 | 205 | 6.1 | 10.4 | 0.00 | 0.12 | 0.12 | 81 | 1011.9 |
| 20260506224007 | 50 | 219 | 6.1 | 9.6 | 0.00 | 0.12 | 0.12 | 81 | 1011.9 |
| 20260506223507 | 50 | 218 | 5.2 | 9.6 | 0.00 | 0.12 | 0.12 | 82 | 1011.8 |
| 20260506223024 | 50 | 206 | 5.2 | 9.6 | 0.00 | 0.12 | 0.12 | 83 | 1012.0 |
| 20260506222511 | 50 | 227 | 3.5 | 8.7 | 0.00 | 0.12 | 0.12 | 83 | 1011.9 |
| 20260506222009 | 50 | 214 | 4.3 | 7.8 | 0.00 | 0.12 | 0.12 | 83 | 1011.8 |
| 20260506221507 | 50 | 221 | 5.2 | 7.8 | 0.00 | 0.12 | 0.12 | 83 | 1011.8 |
| 20260506221004 | 51 | 184 | 2.6 | 7.8 | 0.00 | 0.12 | 0.12 | 84 | 1011.7 |
| 20260506220504 | 51 | 245 | 4.3 | 8.7 | 0.00 | 0.12 | 0.12 | 84 | 1011.6 |
| 20260506220016 | 51 | 198 | 4.3 | 8.7 | 0.00 | 0.12 | 0.12 | 84 | 1011.6 |
| 20260506215503 | 51 | 231 | 5.2 | 8.7 | 0.00 | 0.12 | 0.12 | 84 | 1011.7 |
| 20260506215003 | 51 | 224 | 4.3 | 11.3 | 0.00 | 0.12 | 0.12 | 84 | 1011.5 |
| 20260506214520 | 51 | 191 | 6.1 | 11.3 | 0.00 | 0.12 | 0.12 | 84 | 1011.4 |
| 20260506214008 | 51 | 213 | 4.3 | 9.6 | 0.00 | 0.12 | 0.12 | 84 | 1011.3 |
| 20260506213508 | 51 | 217 | 2.6 | 7.8 | 0.00 | 0.12 | 0.12 | 84 | 1011.2 |
| 20260506213024 | 51 | 196 | 3.5 | 8.7 | 0.00 | 0.12 | 0.12 | 85 | 1011.2 |
| 20260506212507 | 51 | 213 | 4.3 | 8.7 | 0.00 | 0.12 | 0.12 | 86 | 1011.2 |
| 20260506212011 | 51 | 226 | 3.5 | 7.8 | 0.00 | 0.12 | 0.12 | 87 | 1011.1 |
| 20260506211527 | 51 | 210 | 4.3 | 7.0 | 0.00 | 0.12 | 0.12 | 87 | 1011.1 |
| 20260506211008 | 51 | 207 | 3.5 | 6.1 | 0.00 | 0.12 | 0.12 | 88 | 1010.8 |
| 20260506210504 | 50 | 216 | 3.5 | 7.0 | 0.00 | 0.12 | 0.12 | 88 | 1010.8 |
| 20260506210020 | 50 | 225 | 4.3 | 7.0 | 0.00 | 0.12 | 0.12 | 88 | 1010.6 |
| 20260506205506 | 50 | 236 | 3.5 | 7.0 | 0.00 | 0.12 | 0.12 | 88 | 1010.7 |
| 20260506205004 | 50 | 246 | 4.3 | 7.0 | 0.00 | 0.12 | 0.12 | 88 | 1010.6 |
| 20260506204518 | 51 | 167 | 1.7 | 6.1 | 0.00 | 0.12 | 0.12 | 89 | 1010.8 |
| 20260506204008 | 50 | 222 | 2.6 | 5.2 | 0.00 | 0.12 | 0.12 | 89 | 1010.7 |
| 20260506203504 | 50 | 226 | 3.5 | 7.0 | 0.00 | 0.12 | 0.12 | 89 | 1010.6 |
| 20260506203027 | 50 | 219 | 2.6 | 9.6 | 0.00 | 0.12 | 0.12 | 89 | 1010.5 |
| 20260506202505 | 50 | 231 | 4.3 | 9.6 | 0.00 | 0.12 | 0.12 | 88 | 1010.4 |
| 20260506202011 | 50 | 201 | 5.2 | 8.7 | 0.00 | 0.12 | 0.12 | 88 | 1010.6 |
| 20260506201524 | 50 | 163 | 4.3 | 7.8 | 0.00 | 0.12 | 0.12 | 89 | 1010.5 |
| 20260506201008 | 51 | 214 | 4.3 | 7.8 | 0.00 | 0.12 | 0.12 | 89 | 1010.5 |
| 20260506200515 | 51 | 225 | 4.3 | 9.6 | 0.00 | 0.12 | 0.12 | 89 | 1010.5 |
| 20260506200030 | 51 | 241 | 3.5 | 9.6 | 0.00 | 0.12 | 0.12 | 89 | 1010.5 |
| 20260506195507 | 51 | 244 | 6.1 | 9.6 | 0.00 | 0.12 | 0.12 | 88 | 1010.5 |
| 20260506195005 | 51 | 203 | 2.6 | 7.0 | 0.00 | 0.12 | 0.12 | 88 | 1010.5 |
| 20260506194516 | 51 | 207 | 4.3 | 7.0 | 0.00 | 0.12 | 0.12 | 87 | 1010.5 |
| 20260506194007 | 52 | 222 | 4.3 | 7.8 | 0.00 | 0.12 | 0.12 | 88 | 1010.4 |
| 20260506193504 | 51 | 193 | 3.5 | 9.6 | 0.00 | 0.12 | 0.12 | 88 | 1010.4 |
| 20260506193017 | 51 | 208 | 5.2 | 9.6 | 0.00 | 0.12 | 0.12 | 89 | 1010.4 |
| 20260506192504 | 51 | 179 | 4.3 | 9.6 | 0.00 | 0.12 | 0.12 | 89 | 1010.4 |
| 20260506192011 | 51 | 200 | 3.5 | 12.2 | 0.00 | 0.12 | 0.12 | 90 | 1010.5 |
| 20260506191528 | 51 | 198 | 5.2 | 12.2 | 0.00 | 0.12 | 0.12 | 89 | 1010.5 |
| 20260506191010 | 51 | 148 | 5.2 | 10.4 | 0.00 | 0.12 | 0.12 | 88 | 1010.4 |
| 20260506190511 | 52 | 230 | 6.1 | 10.4 | 0.00 | 0.12 | 0.12 | 87 | 1010.3 |
| 20260506190026 | 52 | 187 | 4.3 | 11.3 | 0.00 | 0.12 | 0.12 | 88 | 1010.3 |